Location: Tr�vern
(48.0333°N, 4.6000°W)
Time: 08:43:32
(UTC+00:00)

Cosmos 2322 Rocket - Pass Details

Date: 14 July 2020
Orbit: 832 x 851 km, 71.0° (Epoch: 04 August)

Event Time Altitude Azimuth Distance (km) Brightness Sun altitude
Rises 02:42:34 0° 336° (NNW) 3,405 5.8 -13.8°
Reaches altitude 10° 02:45:23 10° 348° (NNW) 2,470 5.3 -13.5°
Maximum altitude 02:50:13 28° 47° (NE) 1,539 4.4 -13.1°
Drops below altitude 10° 02:55:03 10° 106° (ESE) 2,470 4.9 -12.6°
Sets 02:57:51 0° 118° (ESE) 3,404 5.5 -12.3°
